Hourly Data Report for January 03, 2017

All times are specified in Local Standard Time (LST). Add 1 hour to adjust for Daylight Saving Time where and when it is observed.

ST LEONARD CS
NEW BRUNSWICK

47°09'28.050" N
67°49'55.014" W
245.00 m
810I001
71019
WIY

Download Data

Hourly Data (January 2017)
Hourly Data Report for January 3, 2017
Temp Definition
°C
Dew Point Temp Definition
°C
Rel Hum Definition
%
Wind Dir Definition
10's deg

Wind Spd Definition
km/h
Visibility Definition
km
Stn Press Definition
kPa
Hmdx Definition


Wind Chill Definition


Weather Definition


TIME
00:00 -10.7 -11.3 95 1 7   100.14   -15 LegendNANA
01:00 -11.1 -11.8 95 35 4   100.12   -14 LegendNANA
02:00 -10.4 -11.0 96 1 7   100.06   -14 LegendNANA
03:00 -12.1 -13.0 93 1 7   100.07   -16 LegendNANA
04:00 -14.2 -15.4 91 36 6   100.13   -18 LegendNANA
05:00 -12.7 -13.7 93 5 6   100.05   -17 LegendNANA
06:00 -14.2 -15.3 92 35 2   100.02   -16 LegendNANA
07:00 -14.4 -15.5 91 5 4   99.91   -17 LegendNANA
08:00 -14.2 -15.3 92 6 3   99.84   -16 LegendNANA
09:00 -14.6 -15.6 92 36 8   99.89   -20 LegendNANA
10:00 -15.0 -16.1 91 31 5   99.91   -19 LegendNANA
11:00 -10.3 -11.1 94 5 4   99.86   -13 LegendNANA
12:00 -9.4 -11.3 86 10 7   99.70   -13 LegendNANA
13:00 -7.7 -10.0 83 10 8   99.55   -12 LegendNANA
14:00 -7.1 -9.3 84 8 8   99.47   -11 LegendNANA
15:00 -6.5 -8.5 86 11 7   99.44   -10 LegendNANA
16:00 -6.5 -8.0 89 8 10   99.36   -11 LegendNANA
17:00 -6.9 -8.1 91 7 10   99.33   -12 LegendNANA
18:00 -6.9 -8.0 92 8 12   99.25   -12 LegendNANA
19:00 -6.9 -7.8 93 8 10   99.15   -12 LegendNANA
20:00 -6.8 -8.0 91 9 15   99.04   -13 LegendNANA
21:00 -6.7 -8.5 87 10 13   98.93   -12 LegendNANA
22:00 -7.2 -9.3 85 9 14   98.81   -13 LegendNANA
23:00 -6.9 -9.4 82 11 12   98.70   -12 LegendNANA

Notes on Data Quality.

Legend

  • E = Estimated
  • M = Missing
  • NA = Not Available
  • ‡ = Partner data that is not subject to review by the National Climate Archives
Date modified: